| time (UTC) | temp F | wind direction | speed knots | gust knots | rain 1hr in | rain 24hr in | rain mn in | humidity % | barometer mb |
| 20260505210905 | 54 | 13 | 2.6 | 8.7 | 0.00 | 0.00 | 0.00 | 72 | 1013.1 |
| 20260505210005 | 54 | 17 | 1.7 | 7.8 | 0.00 | 0.00 | 0.00 | 72 | 1013.0 |
| 20260505205403 | 54 | 7 | 2.6 | 7.8 | 0.00 | 0.00 | 0.00 | 72 | 1013.0 |
| 20260505204719 | 54 | 9 | 2.6 | 7.8 | 0.00 | 0.00 | 0.00 | 72 | 1012.9 |
| 20260505203818 | 55 | 5 | 3.5 | 11.3 | 0.00 | 0.00 | 0.00 | 73 | 1013.0 |
| 20260505202705 | 55 | 2 | 1.7 | 7.8 | 0.00 | 0.00 | 0.00 | 73 | 1012.8 |
| 20260505201805 | 55 | 6 | 1.7 | 7.0 | 0.00 | 0.00 | 0.00 | 73 | 1012.7 |
| 20260505200905 | 55 | 8 | 3.5 | 11.3 | 0.00 | 0.00 | 0.00 | 73 | 1012.7 |
| 20260505200218 | 55 | 9 | 3.5 | 9.6 | 0.00 | 0.00 | 0.00 | 73 | 1012.7 |
| 20260505195404 | 56 | 3 | 2.6 | 9.6 | 0.00 | 0.00 | 0.00 | 74 | 1012.6 |
| 20260505194505 | 56 | 9 | 2.6 | 8.7 | 0.00 | 0.00 | 0.00 | 74 | 1012.4 |
| 20260505193818 | 56 | 10 | 2.6 | 8.7 | 0.00 | 0.00 | 0.00 | 74 | 1012.4 |
| 20260505192704 | 56 | 9 | 3.5 | 13.0 | 0.00 | 0.00 | 0.00 | 73 | 1012.3 |
| 20260505191803 | 57 | 5 | 4.3 | 12.2 | 0.00 | 0.00 | 0.00 | 72 | 1012.2 |
| 20260505191118 | 57 | 354 | 4.3 | 12.2 | 0.00 | 0.00 | 0.00 | 71 | 1012.2 |
| 20260505190005 | 57 | 358 | 3.5 | 12.2 | 0.00 | 0.00 | 0.00 | 70 | 1012.0 |
| 20260505185403 | 58 | 4 | 2.6 | 12.2 | 0.00 | 0.00 | 0.00 | 69 | 1011.9 |
| 20260505184503 | 58 | 3 | 1.7 | 7.0 | 0.00 | 0.00 | 0.00 | 69 | 1011.8 |
| 20260505183604 | 58 | 8 | 1.7 | 7.8 | 0.00 | 0.00 | 0.00 | 69 | 1011.8 |
| 20260505182703 | 58 | 16 | 1.7 | 8.7 | 0.00 | 0.00 | 0.00 | 69 | 1011.7 |
| 20260505181805 | 58 | 6 | 1.7 | 6.1 | 0.00 | 0.00 | 0.00 | 70 | 1011.8 |
| 20260505180903 | 58 | 354 | 1.7 | 4.3 | 0.00 | 0.00 | 0.00 | 70 | 1011.7 |
| 20260505180003 | 58 | 345 | 1.7 | 4.3 | 0.00 | 0.00 | 0.00 | 69 | 1011.8 |
| 20260505175404 | 58 | 342 | 2.6 | 6.1 | 0.00 | 0.00 | 0.00 | 69 | 1011.8 |
| 20260505174718 | 58 | 340 | 1.7 | 6.1 | 0.00 | 0.00 | 0.00 | 69 | 1011.7 |
| 20260505173605 | 58 | 344 | 1.7 | 4.3 | 0.00 | 0.00 | 0.00 | 69 | 1011.8 |
| 20260505172919 | 58 | 351 | 1.7 | 4.3 | 0.00 | 0.00 | 0.00 | 69 | 1011.8 |
| 20260505171803 | 58 | 350 | 2.6 | 7.8 | 0.00 | 0.00 | 0.00 | 68 | 1011.8 |
| 20260505170904 | 58 | 347 | 1.7 | 7.8 | 0.00 | 0.00 | 0.00 | 68 | 1012.0 |
| 20260505170003 | 59 | 343 | 2.6 | 6.1 | 0.00 | 0.00 | 0.00 | 67 | 1012.0 |
| 20260505165405 | 59 | 354 | 2.6 | 5.2 | 0.00 | 0.00 | 0.00 | 67 | 1012.0 |
| 20260505164503 | 59 | 353 | 1.7 | 4.3 | 0.00 | 0.00 | 0.00 | 67 | 1012.0 |
| 20260505163603 | 59 | 339 | 2.6 | 6.1 | 0.00 | 0.00 | 0.00 | 66 | 1012.0 |
| 20260505162703 | 59 | 351 | 2.6 | 7.0 | 0.00 | 0.00 | 0.00 | 66 | 1012.0 |
| 20260505162020 | 59 | 347 | 2.6 | 8.7 | 0.00 | 0.00 | 0.00 | 65 | 1012.0 |
| 20260505160904 | 60 | 7 | 1.7 | 7.8 | 0.00 | 0.00 | 0.00 | 66 | 1011.9 |
| 20260505152705 | 59 | 342 | 1.7 | 4.3 | 0.00 | 0.00 | 0.00 | 68 | 1012.1 |
| 20260505151803 | 59 | 335 | 1.7 | 4.3 | 0.00 | 0.00 | 0.00 | 68 | 1012.1 |
| 20260505151119 | 59 | 351 | 2.6 | 7.0 | 0.00 | 0.00 | 0.00 | 68 | 1012.1 |
| 20260505124506 | 61 | 356 | 0.9 | 4.3 | 0.00 | 0.00 | 0.00 | 64 | 1012.6 |
| 20260505123605 | 61 | 13 | 0.9 | 5.2 | 0.00 | 0.00 | 0.00 | 64 | 1012.6 |
| 20260505122705 | 61 | 14 | 0.9 | 7.0 | 0.00 | 0.00 | 0.00 | 65 | 1012.6 |
| 20260505121804 | 61 | 353 | 1.7 | 6.1 | 0.00 | 0.00 | 0.00 | 64 | 1012.6 |
| 20260505120905 | 61 | 337 | 0.9 | 3.5 | 0.00 | 0.00 | 0.00 | 64 | 1012.6 |
| 20260505120004 | 61 | 3 | 0.9 | 2.6 | 0.00 | 0.00 | 0.00 | 65 | 1012.6 |
| 20260505115616 | 61 | 9 | 0.9 | 2.6 | 0.00 | 0.00 | 0.00 | 65 | 1012.7 |
| 20260505114504 | 60 | 2 | 0.9 | 5.2 | 0.00 | 0.00 | 0.00 | 65 | 1012.7 |
| 20260505113603 | 59 | 360 | 0.0 | 0.9 | 0.00 | 0.00 | 0.00 | 65 | 1012.7 |
| 20260505112703 | 59 | 6 | 0.9 | 4.3 | 0.00 | 0.00 | 0.00 | 66 | 1012.9 |
| 20260505111805 | 59 | 360 | 0.9 | 4.3 | 0.00 | 0.00 | 0.00 | 66 | 1012.9 |
| 20260505110904 | 58 | 5 | 0.9 | 4.3 | 0.00 | 0.00 | 0.00 | 67 | 1013.0 |
| 20260505101803 | 58 | 9 | 1.7 | 5.2 | 0.00 | 0.00 | 0.00 | 70 | 1013.2 |
| 20260505100904 | 58 | 13 | 1.7 | 7.0 | 0.00 | 0.00 | 0.00 | 71 | 1013.2 |
| 20260505100003 | 58 | 6 | 2.6 | 8.7 | 0.00 | 0.00 | 0.00 | 71 | 1013.2 |
| 20260505095405 | 58 | 8 | 3.5 | 9.6 | 0.00 | 0.00 | 0.00 | 72 | 1013.3 |
| 20260505094719 | 58 | 9 | 2.6 | 8.7 | 0.00 | 0.00 | 0.00 | 72 | 1013.3 |
| 20260505093603 | 56 | 360 | 3.5 | 10.4 | 0.00 | 0.00 | 0.00 | 77 | 1013.4 |
| 20260505092705 | 55 | 3 | 1.7 | 7.8 | 0.00 | 0.00 | 0.00 | 80 | 1013.6 |
| 20260505091805 | 55 | 12 | 0.0 | 3.5 | 0.00 | 0.00 | 0.00 | 83 | 1013.5 |
| 20260505090904 | 54 | 357 | 0.0 | 2.6 | 0.00 | 0.00 | 0.00 | 84 | 1013.5 |
| 20260505090220 | 54 | 327 | 0.9 | 4.3 | 0.00 | 0.00 | 0.00 | 85 | 1013.5 |
| 20260505085403 | 54 | 1 | 0.9 | 4.3 | 0.00 | 0.00 | 0.00 | 85 | 1013.6 |
| 20260505084503 | 54 | 336 | 0.9 | 3.5 | 0.00 | 0.00 | 0.00 | 85 | 1013.7 |
| 20260505083603 | 54 | 320 | 0.9 | 3.5 | 0.00 | 0.00 | 0.00 | 85 | 1013.6 |
| 20260505082705 | 54 | 344 | 0.9 | 4.3 | 0.00 | 0.00 | 0.00 | 86 | 1013.7 |
| 20260505081803 | 54 | 339 | 1.7 | 7.0 | 0.00 | 0.00 | 0.00 | 87 | 1013.7 |
| 20260505080903 | 53 | 342 | 1.7 | 6.1 | 0.00 | 0.00 | 0.00 | 90 | 1013.7 |
| 20260505080003 | 52 | 354 | 0.9 | 4.3 | 0.00 | 0.00 | 0.00 | 91 | 1013.7 |
| 20260505075405 | 51 | 359 | 1.7 | 6.1 | 0.00 | 0.00 | 0.00 | 91 | 1013.6 |
| 20260505074503 | 51 | 340 | 1.7 | 5.2 | 0.00 | 0.00 | 0.00 | 91 | 1013.7 |
| 20260505073605 | 51 | 354 | 1.7 | 7.8 | 0.00 | 0.00 | 0.00 | 91 | 1013.8 |
| 20260505072705 | 50 | 354 | 1.7 | 6.1 | 0.00 | 0.00 | 0.00 | 92 | 1013.8 |
| 20260505072018 | 50 | 355 | 0.0 | 4.3 | 0.00 | 0.00 | 0.00 | 92 | 1013.7 |
| 20260505070904 | 50 | 334 | 1.7 | 4.3 | 0.00 | 0.00 | 0.00 | 92 | 1013.9 |
| 20260505070217 | 50 | 330 | 1.7 | 4.3 | 0.00 | 0.00 | 0.00 | 92 | 1013.8 |
| 20260505065403 | 50 | 3 | 0.9 | 5.2 | 0.00 | 0.00 | 0.00 | 92 | 1013.8 |
| 20260505064505 | 50 | 341 | 0.0 | 2.6 | 0.00 | 0.00 | 0.00 | 92 | 1013.9 |
| 20260505063819 | 50 | 355 | 0.9 | 3.5 | 0.00 | 0.00 | 0.00 | 92 | 1013.8 |
| 20260505062916 | 50 | 342 | 0.9 | 2.6 | 0.00 | 0.00 | 0.00 | 92 | 1013.9 |
| 20260505062018 | 50 | 333 | 0.9 | 4.3 | 0.00 | 0.00 | 0.00 | 92 | 1013.8 |
| 20260505060903 | 50 | 347 | 0.9 | 1.7 | 0.00 | 0.00 | 0.00 | 93 | 1013.8 |
| 20260505060217 | 49 | 5 | 0.0 | 2.6 | 0.00 | 0.00 | 0.00 | 93 | 1013.8 |
| 20260505055404 | 49 | 5 | 0.9 | 3.5 | 0.00 | 0.00 | 0.00 | 93 | 1013.8 |
| 20260505054505 | 49 | 1 | 0.9 | 3.5 | 0.00 | 0.00 | 0.00 | 93 | 1013.9 |
| 20260505053604 | 49 | 4 | 0.9 | 4.3 | 0.00 | 0.00 | 0.00 | 93 | 1013.9 |
| 20260505052705 | 48 | 5 | 0.0 | 1.7 | 0.00 | 0.00 | 0.00 | 93 | 1014.0 |
| 20260505051804 | 48 | 5 | 0.9 | 1.7 | 0.00 | 0.00 | 0.00 | 93 | 1014.1 |
| 20260505050905 | 48 | 5 | 0.9 | 2.6 | 0.00 | 0.00 | 0.00 | 93 | 1014.0 |
| 20260505040904 | 48 | 0 | 0.0 | 0.0 | 0.00 | 0.00 | 0.00 | 93 | 1014.0 |
| 20260505040005 | 47 | 16 | 0.0 | 0.9 | 0.00 | 0.00 | 0.00 | 93 | 1014.0 |
| 20260505035404 | 47 | 16 | 0.0 | 0.9 | 0.00 | 0.00 | 0.00 | 93 | 1014.0 |
| 20260505034503 | 47 | 17 | 0.9 | 1.7 | 0.00 | 0.00 | 0.00 | 93 | 1014.1 |
| 20260505033818 | 47 | 15 | 0.9 | 3.5 | 0.00 | 0.00 | 0.00 | 93 | 1014.1 |
| 20260505032704 | 47 | 360 | 0.9 | 1.7 | 0.00 | 0.00 | 0.00 | 93 | 1014.2 |
| 20260505031804 | 47 | 360 | 0.0 | 1.7 | 0.00 | 0.00 | 0.00 | 92 | 1014.1 |
| 20260505031118 | 47 | 360 | 0.9 | 2.6 | 0.00 | 0.00 | 0.00 | 92 | 1014.1 |
| 20260505030217 | 47 | 360 | 1.7 | 3.5 | 0.00 | 0.00 | 0.00 | 92 | 1014.0 |
| 20260505025404 | 47 | 360 | 0.9 | 2.6 | 0.00 | 0.00 | 0.00 | 92 | 1014.1 |
| 20260505024716 | 47 | 360 | 0.9 | 2.6 | 0.00 | 0.00 | 0.00 | 92 | 1014.1 |
| 20260505023604 | 47 | 360 | 0.0 | 0.9 | 0.00 | 0.00 | 0.00 | 92 | 1014.2 |
| 20260505022703 | 47 | 360 | 0.0 | 0.9 | 0.00 | 0.00 | 0.00 | 92 | 1014.2 |
| 20260505021804 | 47 | 0 | 0.0 | 0.0 | 0.00 | 0.00 | 0.00 | 91 | 1014.0 |
| 20260505020903 | 47 | 360 | 0.0 | 2.6 | 0.00 | 0.00 | 0.00 | 91 | 1014.1 |
| 20260505020217 | 48 | 360 | 0.0 | 2.6 | 0.00 | 0.00 | 0.00 | 91 | 1013.9 |
| 20260505015404 | 48 | 360 | 0.0 | 1.7 | 0.00 | 0.00 | 0.00 | 91 | 1014.0 |
| 20260505014505 | 48 | 360 | 0.0 | 0.9 | 0.00 | 0.00 | 0.00 | 91 | 1014.2 |
| 20260505013603 | 48 | 360 | 0.0 | 0.9 | 0.00 | 0.00 | 0.00 | 90 | 1014.3 |
| 20260505012703 | 48 | 360 | 0.0 | 0.9 | 0.00 | 0.00 | 0.00 | 90 | 1014.4 |
| 20260505011803 | 49 | 360 | 0.0 | 0.9 | 0.00 | 0.00 | 0.00 | 90 | 1014.5 |
| 20260505010905 | 49 | 360 | 0.0 | 0.9 | 0.00 | 0.00 | 0.00 | 90 | 1014.6 |
| 20260505010005 | 49 | 0 | 0.0 | 0.0 | 0.00 | 0.00 | 0.00 | 89 | 1014.6 |
| 20260505005403 | 49 | 0 | 0.0 | 0.0 | 0.00 | 0.00 | 0.00 | 89 | 1014.5 |
| 20260505004506 | 50 | 0 | 0.0 | 0.0 | 0.00 | 0.00 | 0.00 | 89 | 1014.6 |
| 20260505003603 | 50 | 0 | 0.0 | 0.0 | 0.00 | 0.00 | 0.00 | 88 | 1014.7 |
| 20260505002918 | 50 | 360 | 0.0 | 0.9 | 0.00 | 0.00 | 0.00 | 88 | 1014.7 |
| 20260505002020 | 51 | 0 | 0.0 | 0.0 | 0.00 | 0.00 | 0.00 | 88 | 1014.7 |
| 20260505000903 | 52 | 360 | 0.0 | 1.7 | 0.00 | 0.00 | 0.00 | 87 | 1014.7 |
| 20260505000004 | 52 | 360 | 0.0 | 1.7 | 0.00 | 0.00 | 0.00 | 87 | 1014.7 |
| 20260504235403 | 52 | 1 | 0.9 | 3.5 | 0.00 | 0.00 | 0.00 | 86 | 1014.8 |
| 20260504234719 | 52 | 2 | 0.9 | 3.5 | 0.00 | 0.00 | 0.00 | 86 | 1014.8 |
| 20260504233605 | 53 | 356 | 0.0 | 1.7 | 0.00 | 0.00 | 0.00 | 86 | 1014.9 |
| 20260504232918 | 53 | 355 | 0.0 | 0.9 | 0.00 | 0.00 | 0.00 | 86 | 1015.0 |
| 20260504231803 | 53 | 355 | 0.0 | 0.9 | 0.00 | 0.00 | 0.00 | 86 | 1015.0 |
| 20260504230903 | 53 | 355 | 0.0 | 2.6 | 0.00 | 0.00 | 0.00 | 86 | 1014.9 |
| 20260504230005 | 53 | 360 | 0.0 | 2.6 | 0.00 | 0.00 | 0.00 | 86 | 1014.9 |
| 20260504225403 | 53 | 11 | 0.0 | 2.6 | 0.00 | 0.00 | 0.00 | 86 | 1015.0 |
| 20260504224504 | 54 | 353 | 0.0 | 2.6 | 0.00 | 0.00 | 0.00 | 86 | 1015.1 |
| 20260504223603 | 54 | 18 | 0.9 | 3.5 | 0.00 | 0.00 | 0.00 | 86 | 1015.1 |
| 20260504222706 | 54 | 357 | 0.9 | 3.5 | 0.00 | 0.00 | 0.00 | 86 | 1015.1 |
| 20260504221805 | 54 | 8 | 1.7 | 7.0 | 0.00 | 0.00 | 0.00 | 85 | 1015.1 |
| 20260504220903 | 54 | 358 | 1.7 | 7.0 | 0.00 | 0.00 | 0.00 | 85 | 1015.1 |
| 20260504220005 | 54 | 6 | 1.7 | 7.0 | 0.00 | 0.00 | 0.00 | 85 | 1015.1 |
| 20260504215617 | 54 | 13 | 1.7 | 7.0 | 0.00 | 0.00 | 0.00 | 85 | 1015.1 |
| 20260504214503 | 54 | 7 | 0.9 | 4.3 | 0.00 | 0.00 | 0.00 | 85 | 1015.2 |
| 20260504213603 | 54 | 12 | 1.7 | 6.1 | 0.00 | 0.00 | 0.00 | 85 | 1015.2 |
| 20260504212917 | 55 | 7 | 1.7 | 6.1 | 0.00 | 0.00 | 0.00 | 85 | 1015.2 |
| 20260504211803 | 55 | 6 | 1.7 | 5.2 | 0.00 | 0.00 | 0.00 | 85 | 1015.2 |